Weather History for KEYW - November, 2013

Change the Weather History Date:

Wednesday, November 13, 2013

  Actual Average Record
Temperature  
Mean Temperature 76 °F 76 °F  
Max Temperature 79 °F 80 °F 88 °F (1936)
Min Temperature 72 °F 72 °F 59 °F (1968)
Degree Days  
Heating Degree Days 0 0  
Month to date heating degree days 0 0  
Since 1 July heating degree days 0 0  
Cooling Degree Days 11 11  
Month to date cooling degree days 182 156  
Year to date cooling degree days 4568 4364  
Growing Degree Days 26 (Base 50)    
Moisture  
Dew Point 67 °F    
Average Humidity 76    
Maximum Humidity 84    
Minimum Humidity 67    
Precipitation  
Precipitation 0.00 in 0.07 in 17.05 in (1954)
Month to date precipitation 0.10 1.10  
Year to date precipitation 41.45 36.41  
Snow  
Snow 0.00 in - - ()
Month to date snowfall 0.0  
Since 1 July snowfall 0.0  
Since 1 September snowfall 0.0  
Snow Depth 0.00 in    
Sea Level Pressure  
Sea Level Pressure 30.07 in    
Wind  
Wind Speed 16 mph (NE)    
Max Wind Speed 26 mph    
Max Gust Speed 34 mph    
Visibility 10 miles    
Events      
T = Trace of Precipitation, MM = Missing Value Source: NWS Daily Summary

Daily Weather History Graph

Daily Weather History Graph

Search for Another Location

Airport or City:

Trip Planner

Search our weather history database for the weather conditions in past years. The results will help you decide how hot, cold, wet, or windy it might be!

Date:

Astronomy

Nov. 13, 2013 Rise Set
Actual Time 6:41 AM EST 5:40 PM EST
Civil Twilight 6:17 AM EST 6:04 PM EST
Nautical Twilight 5:50 AM EST 6:32 PM EST
Astronomical Twilight 5:23 AM EST 6:59 PM EST
Moon 3:06 PM EST (11/13) 2:57 AM EST (11/13)
Length of Visible Light 11h 46m
Length of Day
10h 59m
Waxing Gibbous, 84% of the Moon is Illuminated
Nov 13
Waxing Gibbous
Nov 17
Full
Nov 25
Last Quarter
Dec 2
New
Dec 9
First Quarter

Hourly Weather History & Observations

Time (EST) Temp. Dew Point Humidity Pressure Visibility Wind Dir Wind Speed Gust Speed Precip Events Conditions
12:53 AM 78.1 °F 70.0 °F 76% 30.02 in 10.0 mi NE 10.4 mph - N/A   Mostly Cloudy
1:53 AM 77.0 °F 71.1 °F 82% 30.00 in 10.0 mi NNE 11.5 mph - N/A   Partly Cloudy
2:53 AM 77.0 °F 69.1 °F 76% 30.00 in 10.0 mi NNE 8.1 mph - N/A   Clear
3:53 AM 75.9 °F 68.0 °F 76% 30.00 in 10.0 mi NNE 11.5 mph - N/A   Clear
4:53 AM 75.0 °F 70.0 °F 84% 30.00 in 10.0 mi NNE 15.0 mph 21.9 mph N/A   Partly Cloudy
5:53 AM 75.0 °F 70.0 °F 84% 30.03 in 10.0 mi NNE 11.5 mph - N/A   Partly Cloudy
6:08 AM 75.0 °F 69.1 °F 82% 30.03 in 10.0 mi NNE 12.7 mph - N/A   Mostly Cloudy
6:53 AM 73.9 °F 68.0 °F 82% 30.05 in 10.0 mi NNE 17.3 mph 24.2 mph N/A   Mostly Cloudy
7:27 AM 73.9 °F 68.0 °F 82% 30.05 in 10.0 mi NNE 15.0 mph 25.3 mph N/A   Mostly Cloudy
7:53 AM 75.0 °F 68.0 °F 79% 30.06 in 10.0 mi NNE 13.8 mph 25.3 mph N/A   Scattered Clouds
8:53 AM 75.0 °F 66.9 °F 76% 30.09 in 10.0 mi NNE 13.8 mph 21.9 mph N/A   Clear
9:53 AM 75.0 °F 66.0 °F 73% 30.10 in 10.0 mi NNE 18.4 mph 29.9 mph N/A   Partly Cloudy
10:53 AM 73.9 °F 64.0 °F 71% 30.10 in 10.0 mi NNE 19.6 mph 32.2 mph N/A   Scattered Clouds
11:53 AM 75.0 °F 64.9 °F 71% 30.09 in 10.0 mi NNE 20.7 mph 28.8 mph N/A   Mostly Cloudy
12:53 PM 78.1 °F 66.0 °F 66% 30.06 in 10.0 mi NE 17.3 mph 24.2 mph N/A   Mostly Cloudy
1:53 PM 75.9 °F 66.0 °F 71% 30.04 in 10.0 mi NNE 16.1 mph - N/A   Mostly Cloudy
2:53 PM 75.0 °F 66.0 °F 73% 30.04 in 10.0 mi NNE 18.4 mph 27.6 mph N/A   Scattered Clouds
3:53 PM 75.0 °F 66.0 °F 73% 30.05 in 10.0 mi NNE 19.6 mph 28.8 mph N/A   Scattered Clouds
4:53 PM 75.9 °F 66.0 °F 71% 30.07 in 10.0 mi NNE 16.1 mph 28.8 mph N/A   Mostly Cloudy
5:11 PM 75.0 °F 66.0 °F 73% 30.08 in 10.0 mi NE 20.7 mph 29.9 mph N/A   Overcast
5:24 PM 75.0 °F 66.0 °F 73% 30.08 in 10.0 mi NE 16.1 mph 29.9 mph N/A   Overcast
5:53 PM 75.0 °F 64.9 °F 71% 30.08 in 10.0 mi NE 17.3 mph 29.9 mph N/A   Mostly Cloudy
6:53 PM 73.9 °F 64.9 °F 73% 30.09 in 10.0 mi NE 19.6 mph 32.2 mph N/A   Mostly Cloudy
7:53 PM 73.0 °F 64.9 °F 76% 30.12 in 10.0 mi NE 19.6 mph 28.8 mph N/A   Mostly Cloudy
8:53 PM 73.0 °F 64.9 °F 76% 30.14 in 10.0 mi NE 20.7 mph 29.9 mph N/A   Mostly Cloudy
9:06 PM 73.0 °F 64.9 °F 76% 30.14 in 10.0 mi NE 18.4 mph 29.9 mph N/A   Scattered Clouds
9:45 PM 72.0 °F 64.9 °F 78% 30.14 in 10.0 mi NE 17.3 mph 33.4 mph N/A   Mostly Cloudy
9:53 PM 72.0 °F 64.9 °F 78% 30.14 in 10.0 mi NE 18.4 mph 28.8 mph N/A   Mostly Cloudy
10:12 PM 72.0 °F 64.9 °F 78% 30.15 in 10.0 mi NE 16.1 mph 26.5 mph N/A   Mostly Cloudy
10:53 PM 72.0 °F 64.9 °F 78% 30.14 in 10.0 mi NE 15.0 mph 26.5 mph N/A   Mostly Cloudy
11:53 PM 72.0 °F 64.9 °F 78% 30.12 in 10.0 mi NE 18.4 mph 27.6 mph N/A   Mostly Cloudy